Lid_Strength_Index
11 12 15 13 13 15 15 16 16 15 13 13 13 14 12 11 12 12 12 12 12 11 9 9 9 9 6 4 3 3 2 1 2 2 2 1 2 1 1 1 1 2 2 3
13 15 12 11 12 14 15 16 17 15 13 13 14 14 13 13 12 11 11 12 12 12 11 10 10 10 10 7 4 2 2 1 1 1 1 1 1 1 0 1 1 1 2 3
14 13 11 12 14 14 15 16 16 15 15 15 15 16 15 13 13 12 12 11 11 11 11 11 11 11 11 10 8 4 2 1 1 1 2 6 4 5 3 2 2 1 1 2
13 11 12 13 14 13 16 13 14 14 16 18 16 20 17 15 14 13 12 12 13 12 12 11 11 11 11 11 10 6 3 1 1 1 2 2 2 3 2 2 2 2 2 2
14 13 13 13 13 12 13 12 14 15 17 18 18 19 17 16 15 13 13 13 13 12 12 12 11 10 10 10 11 8 4 2 2 1 2 2 2 2 6 6 3 3 3 2
13 12 12 12 12 12 12 13 15 16 17 20 18 18 19 17 15 15 13 13 11 10 10 10 10 10 9 9 10 8 5 3 3 2 2 3 3 7 8 8 5 5 4 6
14 14 12 12 13 13 14 15 19 20 21 21 19 19 18 15 14 14 14 12 12 12 11 11 10 10 10 10 9 8 6 5 5 4 5 5 5 7 7 8 6 6 5 7
16 17 13 12 12 13 14 14 18 23 22 21 18 20 17 14 13 13 14 13 12 11 11 11 11 10 10 10 9 9 8 7 5 5 6 6 6 7 6 7 7 7 5 4
16 16 13 13 12 11 14 16 14 18 25 22 19 17 14 14 13 12 11 11 11 11 10 10 10 10 10 10 10 9 8 8 8 6 6 7 7 7 7 8 8 8 8 8
15 17 14 13 12 12 13 12 16 18 24 25 20 20 18 16 13 12 12 12 11 11 10 10 10 10 10 10 10 9 9 9 8 8 8 7 7 6 6 6 7 8 8 8
15 16 17 14 15 15 14 15 15 15 18 22 24 20 15 14 13 12 12 11 11 11 10 10 10 10 10 10 9 9 9 8 8 8 8 8 8 7 7 7 7 8 8 9
13 15 18 16 15 14 14 14 14 16 19 18 18 17 13 13 12 11 12 11 11 10 10 10 10 10 10 10 10 9 9 9 9 8 8 8 8 8 8 8 8 8 9 10
12 16 22 19 16 15 16 16 14 15 16 18 20 17 13 13 12 12 11 11 11 11 10 10 10 10 10 10 10 10 10 9 9 9 9 9 9 9 9 9 9 10 10 11
9 13 17 18 18 16 16 15 15 15 17 17 18 17 15 14 13 12 11 10 10 10 10 10 10 10 10 10 10 10 10 10 10 10 9 10 10 10 10 10 10 11 11 11
10 14 14 14 13 14 16 16 15 16 15 17 16 16 14 12 12 11 11 10 10 11 11 11 11 11 11 11 11 11 11 11 12 12 11 11 10 10 10 11 12 12 12 13
10 15 14 16 13 13 15 15 15 15 15 15 16 15 12 11 11 12 11 11 11 11 11 12 12 12 12 12 13 13 13 13 13 13 13 13 13 13 12 12 13 13 13 13
12 14 16 23 15 15 17 15 15 15 14 14 16 13 11 13 11 11 12 12 12 12 12 12 13 13 13 13 13 14 14 15 15 15 14 14 14 14 13 13 13 13 13 14
13 14 14 20 15 20 17 16 13 13 12 12 12 13 12 12 11 12 12 13 13 13 13 13 13 13 13 14 14 15 15 15 15 15 15 15 14 14 14 14 14 14 14 15
11 13 17 20 18 17 16 15 13 13 14 11 12 12 13 12 12 13 12 13 13 13 13 13 13 13 14 14 15 16 15 15 15 15 15 15 15 15 15 15 15 16 18 18
13 12 15 19 21 23 17 15 12 11 17 14 12 12 13 14 17 14 12 13 13 13 13 13 13 14 14 15 16 16 16 16 16 16 15 16 16 17 16 16 16 18 19 17
14 14 15 17 19 18 15 14 13 17 17 16 13 13 13 14 13 13 13 14 13 13 13 13 13 14 14 14 16 16 16 16 16 17 16 17 17 18 17 17 18 19 19 18
14 15 15 16 17 19 14 12 13 12 13 13 12 12 13 13 13 13 13 13 13 13 13 13 15 15 14 15 17 17 17 16 17 18 18 18 18 18 18 21 20 20 21 21
17 14 16 14 14 11 11 11 9 8 9 11 11 11 11 12 13 13 13 12 12 12 12 14 15 16 16 17 18 17 16 16 17 21 19 17 17 18 19 20 19 20 22 22
16 14 17 16 14 11 10 9 8 8 9 9 9 10 10 11 10 10 11 11 11 13 12 14 13 13 14 16 16 16 15 15 18 17 17 18 18 17 18 14 15 16 16 17
15 13 16 16 13 11 11 9 9 10 9 10 10 10 10 11 11 11 11 11 11 12 14 15 15 14 14 16 17 17 16 17 17 16 15 14 13 14 15 17 18 17 16 14
14 14 15 17 12 12 11 11 10 11 11 12 12 12 11 11 11 12 13 13 14 14 15 14 15 15 16 16 15 15 19 21 21 19 16 15 17 18 17 18 17 11 11 11